Regional Weather Roundup
Issued by NWS Pendleton, OR

Home | Current Version | Previous Version | Text Only | Print | Product List | Glossary On
Versions: 1 2 3 4 5 6 7 8 9 10 11 12 13 14 15 16 17 18 19 20 21 22 23 24 25 26 27 28 29 30 31 32 33 34 35 36 37 38 39 40 41 42 43 44 45 46 47 48 49 50
000
ASUS46 KPDT 252225
RWRPDT
PENDLETON REGIONAL WEATHER ROUNDUP
NATIONAL WEATHER SERVICE PENDLETON OREGON
300 PM PDT SUN SEP 25 2016

NOTE: FAIR INDICATES FEW OR NO CLOUDS BELOW 12,000 FEET WITH NO
SIGNIFICANT WEATHER AND/OR OBSTRUCTIONS TO VISIBILITY.

# INDICATES UNOFFICIAL STATION AND DATA

WAZ520-252310-
EAST SLOPES OF WASHINGTON CASCADES

CITY            SKY/WX      TMP DP  RH  WIND    PRES   REMARKS
#CLE ELUM HS    N/A         76  55  48  W7      30.27F
#CLE ELUM 2NW   N/A         75  52  45  W3      N/A
#CLE ELUM LAKE  N/A         74  55  51  CALM    30.27F
#GLENWOOD       N/A         81  54  39  CALM    30.30F
#MANASTASH CYN  N/A         76  48  37  W1      30.34F
#NELSON 3SW     N/A         72  57  59  CALM    30.49F
#NILE           N/A         78  50  38  SW2     29.56F
#RONALD 2NW     N/A         74  N/A N/A W1      30.37F
#TEANAWAY 4NE   N/A         81  57  44  W5      N/A
#TROUT LAKE 1NE N/A         79  53  41  CALM    30.29F
#TROUT LAKE 1E  N/A         82  52  35  CALM    30.26F
$$

WAZ521-252310-
SIMCOE HIGHLANDS

CITY            SKY/WX      TMP DP  RH  WIND    PRES   REMARKS
#CENTERVILLE 1SWN/A         79  50  36  SW2     30.24F
#GOLDENDALE 1NE N/A         79  34  20  S3      N/A
#GOLDENDALE 4W  N/A         82  56  41  SW6     30.34F
#GOODNOE HILLS  N/A         86  51  30  E3      N/A
#LYLE 6NE       N/A         79  48  34  S5      30.25F
$$

WAZ026-252310-
KITTITAS VALLEY

CITY            SKY/WX      TMP DP  RH  WIND    PRES   REMARKS
ELLENSBURG AP   SUNNY       82  51  34  S3      30.32F
#ELLENSBURG CWU N/A         80  53  39  S5      30.22F
#ELLENSBURG 3NE N/A         78  56  47  CALM    30.30F
#ELLENSBURG     N/A         83  54  37  SE1     N/A
#KITTITAS 4N    N/A         77  55  47  SW2     30.32F
#KITTITAS 3S    N/A         79  56  45  CALM    30.26F
#THORP 6N       N/A         76  54  46  W10     30.29F
$$

WAZ027-252310-
YAKIMA VALLEY

CITY            SKY/WX      TMP DP  RH  WIND    PRES   REMARKS
SUNNYSIDE AP    SUNNY       78  45  31  CALM    30.31F HAZE
YAKIMA AIRPORT  SUNNY       80  42  26  S5      30.33F
YAKIMA-VAGABOND SUNNY       79  43  28  W9      30.31F
#GRANDVIEW      N/A         77  44  31  CALM    30.31F
#MABTON         N/A         78  46  32  N2      30.30F
#NACHES 2SW     N/A         75  48  38  E2      30.36F
#TERRACE HTS    N/A         79  48  34  S1      30.27F
#TOPPENISH      N/A         77  45  32  NE1     30.22F
#WEST VALLEY    N/A         77  46  33  CALM    30.29F
#WHITE SWAN 5E  N/A         76  47  36  CALM    30.31F
#WILEY CITY 3W  N/A         79  36  21  E1      30.31F
$$

WAZ028-252310-
LOWER COLUMBIA BASIN...WASHINGTON

CITY            SKY/WX      TMP DP  RH  WIND    PRES   REMARKS
HANFORD         MOSUNNY     81  35  19  E5      30.31F
PASCO           SUNNY       81  37  21  CALM    30.32F
PROSSER AWOS    N/A         81  43  26  CALM    30.34F
RICHLAND AWOS   SUNNY       82  40  22  E6      30.31F
#BENTON CITY    N/A         79  41  26  E1      30.21F
#CONNELL 5N     N/A         78  41  27  W1      30.32F
#CONNELL 5NW    N/A         78  46  32  SW2     30.28F
#ELTOPIA 6NW    N/A         75  48  38  CALM    29.30F
#KAHLOTUS       N/A         78  40  26  NW7     30.32F
#KENNEWICK 3S   N/A         79  47  32  CALM    30.31F
#PATERSON       N/A         77  33  20  SW1     30.29F
#SAGEMOOR 2W    N/A         77  43  30  SW2     30.16F
#TOUCHET 2S     N/A         82  44  26  CALM    30.29F
#WEST PASCO     N/A         81  49  33  E1      30.32F
$$

WAZ029-252310-
FOOTHILLS OF THE BLUES...WASHINGTON

CITY            SKY/WX      TMP DP  RH  WIND    PRES   REMARKS
WALLA WALLA AP  SUNNY       79  31  17  VRB3    30.34F
#CLYDE 6NW      N/A         78  39  25  SW2     30.30F
#DAYTON SCHOOL  N/A         78  36  22  E2      30.35F
#LOWDEN 2SE     N/A         81  42  25  W2      30.28F
#PLEASANT VIEW 1N/A         79  40  25  SE5     30.35F
#PRESCOTT       N/A         82  39  22  CALM    30.30F
#WHITMAN COLLEGEN/A         79  40  25  CALM    30.35F
#WAITSBURG 5S   N/A         81  40  23  SW3     30.41F
#WHITMAN MISSIONN/A         82  43  25  CALM    30.32F
$$

WAZ030-252310-
BLUE MOUNTAINS...WASHINGTON

CITY            SKY/WX      TMP DP  RH  WIND    PRES   REMARKS
#DIXIE 5SE      N/A         72  43  35  NW2     30.34F
$$

ORZ009-041-WAZ024-252310-
COLUMBIA RIVER GORGE

CITY            SKY/WX      TMP DP  RH  WIND    PRES   REMARKS
HOOD RIVER AP   SUNNY       81  45  28  CALM    30.29F
THE DALLES AP   SUNNY       84  34  17  CALM    30.26F
#ARLINGTON AIRPON/A         80  45  29  NE5     30.29F
#CELILO DOT     N/A         77  47  35  CALM    N/A
#MARYHILL 2W    N/A         N/A N/A N/A CALM    N/A
#MOSIER 1S      N/A         82  32  16  CALM    30.27F
#MURDOCK        N/A         82  42  24  SW3     30.21F
#RUFUS DOT      N/A         79  40  25  NE2     N/A
#SMITHVILLE     N/A         84  41  22  W2      30.19F

$$

ORZ510-252310-
NORTH CENTRAL OREGON

CITY            SKY/WX      TMP DP  RH  WIND    PRES   REMARKS
#ANTELOPE       N/A         80  51  36  N1      30.15F
#COW CYN RST AREN/A         80  N/A N/A W2      N/A
#DUFUR 9E       N/A         77  42  29  N8      30.33F
#GRASS VALLEY 1SN/A         82  44  26  NW1     30.27F
#KENT DOT       N/A         84  34  17  N2      N/A
#SHANIKO 5WSW   N/A         80  42  26  N1      N/A
#TYGH VALLEY 2NEN/A         84  49  30  N1      30.25F
#WAPANITIA AIRPON/A         83  42  24  CALM    30.29F
#WASCO AIRPORT  N/A         82  37  20  N2      N/A
#WASCO 5NE      N/A         81  46  29  E3      30.28F
$$

ORZ511-252310-
CENTRAL OREGON

CITY            SKY/WX      TMP DP  RH  WIND    PRES   REMARKS
BEND AIRPORT    SUNNY       84  37  19  CALM    30.35F
MADRAS AIRPORT  SUNNY       84  37  19  N5      30.36F
PRINEVILLE AP   SUNNY       81  39  22  N5      30.36F
REDMOND AIRPORT SUNNY       85  36  17  VRB6    30.35F
#ASHWOOD SCHOOL N/A         82  37  20  N1      30.27F
#BEND 1SW       N/A         79  40  25  E2      N/A
#BEND-AWBREY    N/A         82  41  23  CALM    30.26F
#CULVER         N/A         81  44  27  VRB1    30.22F
#CULVER 8W      N/A         81  39  22  CALM    30.30F
#LAKE BILLY CHINN/A         81  N/A N/A NE3     30.30F
#MADRAS 4S      N/A         80  18  10  N7      30.38F
#POWELL BUTTE 3EN/A         81  42  25  E5      N/A
#POWELL BUTTE   N/A         82  47  29  N5      30.29F
#PRINEVILLE 3N  N/A         81  48  32  N3      30.28F

$$


ORZ509-252310-
EAST SLOPES OF OREGON CASCADES

CITY            SKY/WX      TMP DP  RH  WIND    PRES   REMARKS
#BLUE BOX PASS  N/A         77  N/A N/A CALM    N/A
#CAMP SHERMAN   N/A         85  39  20  CALM    30.31F
#LA PINE DOT    N/A         83  29  14  S6      N/A
#LA PINE 4NW    N/A         81  46  29  E3      30.35F
#LAVA BUTTE DOT N/A         80  39  23  CALM    N/A
#SISTERS AIRPOR N/A         81  51  35  N1      30.17S
#SISTERS ODOT   N/A         81  N/A N/A NW2     N/A
#SISTERS 3N     N/A         81  44  27  S3      30.29F
#SUNRIVER       N/A         80  43  27  SW2     30.33F
#SUTTLE LK DOT  N/A         73  44  35  N3      N/A
#TUMALO 3W      N/A         80  41  25  E2      30.13F
#WANOGA BUTTE D N/A         71  36  28  S3      N/A

$$

ORZ044-252310-
LOWER COLUMBIA BASIN...OREGON

CITY            SKY/WX      TMP DP  RH  WIND    PRES   REMARKS
HERMISTON       SUNNY       82  37  20  E7      30.31F
#BOARDMAN SCHOOLN/A         75  45  34  N2      30.29F
#BOARDMAN 8SW   N/A         79  50  36  N3      30.28F
#I-84 EX 198 DOTN/A         79  45  30  E2      N/A
#UMATILLA       N/A         82  39  22  CALM    30.23F
$$

ORZ507-252310-
NORTHERN FOOTHILLS OF THE BLUES

CITY            SKY/WX      TMP DP  RH  WIND    PRES   REMARKS
PENDLETON AIRPT SUNNY       81  34  18  N7      30.33F
#ADAMS 3WNW     N/A         79  44  29  E1      30.31F
#ATHENA         N/A         78  40  26  NE1     30.34F
#CAYUSE         N/A         79  40  25  N2      30.29F
#HELIX SCHOOL   N/A         79  41  26  NE2     30.33F
#HELIX 3N       N/A         76  37  24  N5      30.31F
#HELIX 6SW      N/A         78  38  24  CALM    30.32F
#HOLDMAN 5SE    N/A         80  39  23  CALM    30.31F
#HOLDMAN 6E     N/A         80  38  22  CALM    30.13F
#M-F GROVE ELEM N/A         78  35  21  CALM    30.30F
#M-FREEWATER 5SEN/A         81  46  29  N2      30.32F
#PENDLETON DNTN N/A         85  44  24  CALM    30.33S
#PDT AQUATIC CTRN/A         84  48  29  CALM    30.34S
#PDT SUNRIDGE   N/A         82  42  24  CALM    30.33F
#PENDLETON 7NW  N/A         77  46  33  NE1     30.62S
#PILOT ROCK 1S  N/A         78  37  23  CALM    30.34F
#PILOT ROCK     N/A         78  40  26  E2      30.35F
#TUTUILLA       N/A         82  41  23  CALM    30.33F
#UMAPINE 2E     N/A         82  41  23  CALM    30.29F
#WESTON SCHOOL  N/A         76  33  21  CALM    30.16F

$$

ORZ508-252310-
SOUTHERN FOOTHILLS OF THE BLUES

CITY            SKY/WX      TMP DP  RH  WIND    PRES   REMARKS
LEXINGTON       SUNNY       81  36  20  N9      30.36F
#AJAX           N/A         79  34  20  N5      28.07F
#CONDON SCHOOL  N/A         80  44  28  N3      30.29F
#CONDON 5W      N/A         78  41  27  E1      30.36F
#FOSSIL SCHOOL  N/A         82  47  29  CALM    30.27F
#HEPPNER EOC    N/A         82  37  20  N6      30.23F
#HEPPNER 4NE    N/A         75  36  24  N5      30.30F
#LEXINGTON 2SE  N/A         83  40  22  N1      30.28F
#RUGGS 5NE      N/A         81  11   7  N8      30.52F
#RUGGS 2SW      N/A         77  34  21  NE5     30.32F

$$

ORZ502-503-252310-
BLUE MOUNTAINS

CITY            SKY/WX      TMP DP  RH  WIND    PRES   REMARKS
MEACHAM         SUNNY       74  36  25  VRB5    30.43S
#BATTLE MTN DOT N/A         71  35  27  N6      N/A
#CUTSFORTH PARK N/A         77  43  30  CALM    30.20F
#GREENHORN 9SW  N/A         83  45  26  W3      26.54F
#HARDMAN 10S    N/A         73  46  38  SE1     30.45F
#HEPPNER 15SE   N/A         79  38  23  CALM    30.36F
#LADD CYN SMT   N/A         76  36  23  N3      N/A
#LADD CREEK ODOTN/A         74  39  28  NE7     N/A
#LONG CREEK HS  N/A         75  45  34  S1      30.41F
#N POWDER DOT   N/A         77  40  26  NE1     N/A
#PIKES PEAK     N/A         69  39  33  N1      27.99S
#TOLLGATE       N/A         66  45  47  CALM    30.29S
#TROY SCHOOL    N/A         82  44  26  CALM    30.15F
#UKIAH          N/A         78  50  38  NE3     30.28F
#WESTON 4E      N/A         74  45  35  CALM    30.32F
$$

ORZ505-252310-
JOHN DAY BASIN

CITY            SKY/WX      TMP DP  RH  WIND    PRES   REMARKS
JOHN DAY        SUNNY       79  44  29  CALM    30.40F
#DAYVILLE SCHOOLN/A         79  40  25  CALM    30.29F
#MITCHELL       N/A         81  47  30  CALM    30.49F
#MITCHELL 8NW   N/A         75  40  28  N3      30.49F
#MONUMENT HS    N/A         80  40  24  CALM    30.27F
#MT. VERNON 5SE N/A         75  45  34  CALM    30.37F
#SPRAY SCHOOL   N/A         83  N/A N/A CALM    N/A
$$

ORZ506-252310-
OCHOCO AND JOHN DAY HIGHLANDS

CITY            SKY/WX      TMP DP  RH  WIND    PRES   REMARKS
#BUCK CREEK DOT N/A         79  41  26  CALM    N/A
#HORSE RIDGE DO N/A         82  35  18  E6      N/A
#KEYES SMT DOT  N/A         75  41  29  NE5     N/A
#PAULINA SCHOOL N/A         78  42  28  SE1     N/A
#PINE MTN OBS   N/A         69  39  33  CALM    N/A
#PRAIRIE CITY   N/A         82  47  29  W1      30.54F
#SENECA         N/A         73  N/A N/A CALM    N/A
#SENECA 9NW     N/A         76  43  31  CALM    30.37F
$$

ORZ049-252310-
GRANDE RONDE VALLEY

CITY            SKY/WX      TMP DP  RH  WIND    PRES   REMARKS
LA GRANDE       SUNNY       75  36  24  NE3     30.38F
#COVE SCHOOL    N/A         77  46  33  CALM    30.38F
#COVE 6NW       N/A         75  39  27  NW1     30.27F
#ELGIN 3N       N/A         76  34  22  CALM    30.32F
#ELGIN 1E       N/A         79  40  25  CALM    N/A
#IMBLER SCHOOL  N/A         73  38  28  CALM    30.32F
#ISLAND CITY 4N N/A         83  59  44  CALM    30.27F
#LADD CYN DOT   N/A         78  41  27  CALM    N/A
#LA GRANDE ELEM N/A         76  40  27  W3      30.37F
#UNION 1S       N/A         76  42  30  N2      30.36F
$$

ORZ050-252310-
WALLOWA COUNTY

CITY            SKY/WX      TMP DP  RH  WIND    PRES   REMARKS
JOSEPH AIRPORT  SUNNY       73  36  26  N5      30.46S
#IMNAHA SCHOOL  N/A         80  33  18  N6      30.32F
#IMNAHA 10S     N/A         79  39  24  NE3     30.33F
#JOSEPH 3N      N/A         71  34  26  W6      30.42S
#JOSEPH 3W      N/A         70  42  36  E1      30.27S
#LOSTINE        N/A         75  40  28  CALM    30.19F
#LOSTINE 3SE    N/A         74  38  27  N2      30.37S
#MT HOWARD 8000 N/A         54  40  59  NW3     30.65S
#PROMISE 1S     N/A         73  45  37  NW2     30.42F
#WALLOWA SCHOOL N/A         76  44  32  CALM    30.33F



$$



USA.gov is the U.S. government's official web portal to all federal, state and local government web resources and services.